Location: El Limón
(10.3059°N, 67.6321°W)
Time: 11:52:10
(UTC+00:00)

Nadezhda 2 Rocket - Pass Details

Date: 16 December 2025
Orbit: 946 x 1011 km, 83.0° (Epoch: 12 January)

Event Time Altitude Azimuth Distance (km) Brightness Sun altitude
Rises 23:45:35 0° 337° (NNW) 3,605 7.5 -22.1°
Reaches altitude 10° 23:48:23 10° 326° (NW) 2,664 6.9 -22.8°
Maximum altitude 23:53:29 28° 269° (W) 1,687 6.4 -23.9°
Drops below altitude 10° 23:58:38 10° 211° (SSW) 2,689 7.5 -25.1°
Sets 00:01:29 0° 200° (SSW) 3,645 8.1 -25.8°
